Florence, SC

5:45 PM EST on February 19, 2018 (GMT -0500)
Florence Regional

Weather History for KFLO - October, 2012

Change the Weather History Date:

Saturday, October 6, 2012

  Actual Average Record
Temperature  
Mean Temperature 73 °F 68 °F  
Max Temperature 86 °F 78 °F 102 °F (1954)
Min Temperature 59 °F 57 °F 42 °F (1964)
Degree Days  
Heating Degree Days 0 2  
Month to date heating degree days 0 9  
Since 1 July heating degree days 0 18  
Cooling Degree Days 8 4  
Month to date cooling degree days 66 28  
Year to date cooling degree days 2276 1984  
Growing Degree Days 22 (Base 50)    
Moisture  
Dew Point 60 °F    
Average Humidity 67    
Maximum Humidity 97    
Minimum Humidity 37    
Precipitation  
Precipitation 0.00 in 0.11 in 2.14 in (2005)
Month to date precipitation 0.58 0.70  
Year to date precipitation 34.69 34.85  
Sea Level Pressure  
Sea Level Pressure 29.98 in    
Wind  
Wind Speed 4 mph (SW)    
Max Wind Speed 13 mph    
Max Gust Speed 17 mph    
Visibility 4 miles    
Events Fog    
T = Trace of Precipitation, MM = Missing Value Source: NWS Daily Summary

Daily Weather History Graph

Daily Weather History Graph

Search for Another Location

Airport or City:

Trip Planner

Search our weather history database for the weather conditions in past years. The results will help you decide how hot, cold, wet, or windy it might be!

Date:

Astronomy

Oct. 06, 2012 Rise Set
Actual Time 7:17 AM EDT 6:55 PM EDT
Civil Twilight 6:52 AM EDT 7:20 PM EDT
Nautical Twilight 6:23 AM EDT 7:49 PM EDT
Astronomical Twilight 5:54 AM EDT 8:18 PM EDT
Moon 11:21 PM EDT (10/6) 12:58 PM EDT (10/6)
Length of Visible Light 12h 28m
Length of Day
11h 38m
Waning Gibbous, 65% of the Moon is Illuminated
Oct 6
Waning Gibbous
Oct 8
Last Quarter
Oct 15
New
Oct 21
First Quarter
Oct 29
Full

Hourly Weather History & Observations

Time (EDT) Temp. Heat Index Dew Point Humidity Pressure Visibility Wind Dir Wind Speed Gust Speed Precip Events Conditions
12:53 AM 64.0 °F - 62.1 °F 93% 30.02 in 6.0 mi Calm Calm - N/A   Clear
1:49 AM 62.6 °F - 60.8 °F 94% 30.03 in 1.8 mi Calm Calm - N/A   Clear
1:53 AM 63.0 °F - 61.0 °F 93% 30.02 in 1.0 mi Calm Calm - N/A   Clear
2:00 AM 62.6 °F - 60.8 °F 94% 30.03 in 0.8 mi Calm Calm - N/A   Clear
2:08 AM 62.6 °F - 60.8 °F 94% 30.02 in 1.8 mi Calm Calm - N/A   Clear
2:12 AM 62.6 °F - 60.8 °F 94% 30.02 in 3.0 mi Calm Calm - N/A   Clear
2:51 AM 62.6 °F - 60.8 °F 94% 30.01 in 0.8 mi Calm Calm - N/A   Clear
2:53 AM 62.1 °F - 60.1 °F 93% 30.01 in 0.5 mi Calm Calm - N/A Fog Fog
3:02 AM 60.8 °F - 59.0 °F 94% 30.01 in 0.2 mi Calm Calm - N/A Fog Fog
3:08 AM 62.6 °F - 60.8 °F 94% 30.01 in 1.0 mi Calm Calm - N/A   Clear
3:24 AM 62.6 °F - 60.8 °F 94% 30.00 in 4.0 mi Calm Calm - N/A   Clear
3:53 AM 62.1 °F - 59.0 °F 90% 29.99 in 9.0 mi Calm Calm - N/A   Clear
4:10 AM 62.6 °F - 59.0 °F 88% 30.00 in 2.0 mi Calm Calm - N/A   Scattered Clouds
4:12 AM 62.6 °F - 59.0 °F 88% 30.00 in 1.2 mi Calm Calm - N/A   Mostly Cloudy
4:20 AM 60.8 °F - 59.0 °F 94% 30.00 in 2.0 mi Calm Calm - N/A   Scattered Clouds
4:53 AM 61.0 °F - 59.0 °F 93% 29.98 in 5.0 mi Calm Calm - N/A   Clear
5:41 AM 60.8 °F - 57.2 °F 88% 29.98 in 9.0 mi Calm Calm - N/A   Scattered Clouds
5:49 AM 60.8 °F - 57.2 °F 88% 29.98 in 4.0 mi Calm Calm - N/A   Mostly Cloudy
5:51 AM 60.8 °F - 57.2 °F 88% 29.98 in 1.5 mi Calm Calm - N/A   Mostly Cloudy
5:53 AM 61.0 °F - 57.9 °F 90% 29.97 in 0.8 mi Calm Calm - N/A   Mist
6:02 AM 60.8 °F - 59.0 °F 94% 29.98 in 0.2 mi Calm Calm - N/A Fog Fog
6:23 AM 60.8 °F - 59.0 °F 94% 29.98 in 0.5 mi Calm Calm - N/A Fog Fog
6:39 AM 60.8 °F - 57.2 °F 88% 29.99 in 2.0 mi Calm Calm - N/A   Overcast
6:43 AM 59.0 °F - 57.2 °F 94% 29.99 in 0.8 mi Calm Calm - N/A   Mist
6:53 AM 59.0 °F - 57.9 °F 96% 29.99 in 1.0 mi Calm Calm - N/A   Mist
7:23 AM 60.8 °F - 57.2 °F 88% 29.99 in 0.2 mi Calm Calm - N/A Fog Fog
7:38 AM 60.8 °F - 57.2 °F 88% 29.99 in 1.2 mi Calm Calm - N/A   Overcast
7:48 AM 60.8 °F - 57.2 °F 88% 29.99 in 0.2 mi Calm Calm - N/A Fog Fog
7:53 AM 61.0 °F - 59.0 °F 93% 29.99 in 0.8 mi Calm Calm - N/A   Mist
8:00 AM 62.6 °F - 60.8 °F 94% 29.99 in 0.2 mi Calm Calm - N/A Fog Fog
8:06 AM 62.6 °F - 60.8 °F 94% 30.00 in 1.0 mi Calm Calm - N/A   Mist
8:11 AM 62.6 °F - 60.8 °F 94% 30.00 in 3.0 mi Calm Calm - N/A   Mostly Cloudy
8:19 AM 64.4 °F - 62.6 °F 94% 30.00 in 3.0 mi Calm Calm - N/A   Scattered Clouds
8:53 AM 68.0 °F - 64.9 °F 90% 30.01 in 5.0 mi West 4.6 mph - N/A   Clear
10:53 AM 79.0 °F - 66.0 °F 64% 29.99 in 10.0 mi WNW 8.1 mph - N/A   Clear
11:53 AM 81.0 °F 82.5 °F 64.0 °F 56% 29.97 in 10.0 mi WNW 6.9 mph - N/A   Clear
12:53 PM 84.0 °F 84.9 °F 63.0 °F 49% 29.95 in 10.0 mi West 8.1 mph - N/A   Clear
1:53 PM 84.9 °F 84.8 °F 60.1 °F 43% 29.91 in 10.0 mi SW 10.4 mph - N/A   Partly Cloudy
2:53 PM 84.9 °F 84.2 °F 57.9 °F 40% 29.90 in 10.0 mi Variable 5.8 mph - N/A   Partly Cloudy
3:53 PM 86.0 °F 84.9 °F 57.0 °F 37% 29.88 in 10.0 mi SSW 6.9 mph - N/A   Clear
4:53 PM 86.0 °F 84.9 °F 57.0 °F 37% 29.88 in 10.0 mi West 8.1 mph - N/A   Clear
5:53 PM 84.0 °F 83.3 °F 57.0 °F 40% 29.88 in 10.0 mi West 5.8 mph - N/A   Clear
6:53 PM 78.1 °F - 63.0 °F 60% 29.90 in 10.0 mi SSE 3.5 mph - N/A   Clear
7:53 PM 73.9 °F - 66.0 °F 76% 29.92 in 10.0 mi SSE 3.5 mph - N/A   Clear
8:53 PM 72.0 °F - 64.9 °F 78% 29.92 in 10.0 mi Calm Calm - N/A   Clear
9:53 PM 70.0 °F - 64.9 °F 84% 29.94 in 10.0 mi SSE 4.6 mph - N/A   Clear
10:53 PM 70.0 °F - 64.9 °F 84% 29.94 in 10.0 mi South 3.5 mph - N/A   Clear
11:53 PM 70.0 °F - 66.9 °F 90% 29.94 in 9.0 mi South 3.5 mph - N/A   Clear